Location: Heisede
(52.2582°N, 9.8523°E)
Time: 23:25:13
(UTC+00:00)

Cosmos 2297 Rocket - Pass Details

Date: 13 January 2026
Orbit: 838 x 843 km, 71.0° (Epoch: 17 February)

Event Time Altitude Azimuth Distance (km) Brightness Sun altitude
Exits shadow 04:05:39 13° 358° (N) 2,294 4.4 -29.5°
Drops below altitude 10° 04:07:06 10° 12° (NNE) 2,476 4.8 -29.3°
Sets 04:11:02 0° 39° (NE) 3,413 5.9 -28.7°
